Погода в Гремячьем

Россия / Орловская область     52°35′47″N   37°08′29″E
темп.,
°C
ветер,
м/с
пор.,
м/с
влажн.,
%
обл.,
%
осадки,
мм/ч
давл.,
гПа
погр.,
м
6 марта, сб
сб600:00−8сз3390100 0.0 101638
03:00−9сз2390100 0.0 101721
06:00−9зсз3391100 0.0 101636
09:00−10сз489399 0.0 1018217
12:00−6ссз588873 0.0 1019491
15:00−6сз588538 0.0 1018641
18:00−9з34870 0.0 101931
21:00−11з47884 0.0 102096
7 марта, вс
вс700:00−12з478715 0.0 101991
03:00−12зюз510917 0.0 1018167
06:00−11юз614881 0.0 1015308
09:00−7юз9178350 0.0 1012607
12:00−4юз111881100 0.0 1008995
15:00−2зюз121990100 0.2 10031282
18:00−1зюз111991100 0.4 10011176
21:00−5с61197100 2.4 1002500
8 марта, пн
пн800:00−7зюз499094 0.7 1003187
03:00−6зюз6148479 0.8 1003429
06:00−7зюз7158711 0.0 1003522
09:00−7зсз8147738 0.0 10051006
12:00−8зсз711810 0.0 1008629
15:00−7з510800 0.0 1010714
18:00−9з48840 0.0 1011166
21:00−11з45870 0.0 101390
9 марта, вт
вт900:00−13з33900 0.0 101426
03:00−13зсз239524 0.0 101424
06:00−14ссз229777 0.1 101520
09:00−11с239588 0.2 1016137
12:00−10с3493100 0.1 1017322
15:00−9с3588100 0.1 1018572
18:00−11с3392100 0.0 101954
21:00−15ссз339376 0.1 102221
10 марта, ср
ср1000:00−16сз339615 0.0 102421
03:00−18сз23979 0.0 102520
06:00−18зсз239566 0.0 102520
09:00−16зюз249575 0.0 1025112
12:00−10зюз359095 0.0 1025319
15:00−8юз588698 0.2 1023541
18:00−8зюз41091100 0.2 1022453
21:00−9зюз41093100 0.2 1022251